This is the latest recevied weather packets stored in our database for station/object K5NWZ. If no packets are shown the sender has not sent any weather packets the latest 1 day(s).
| Time | Temp. | Humidity | Pressure | Rain* | Wind** | Luminosity | Snow |
|---|---|---|---|---|---|---|---|
| 1777972475 | 3.89° C | 94% | 1022.4 hPa | 1.78 mm | 0.89 m/s, 341° | 0 W/m² | - |
| 1777972173 | 3.89° C | 94% | 1022.1 hPa | 1.27 mm | 0.89 m/s, 262° | 0 W/m² | - |
| 1777971871 | 4.44° C | 94% | 1022 hPa | 1.27 mm | 1.34 m/s, 328° | 0 W/m² | - |
| 1777971568 | 4.44° C | 94% | 1022.1 hPa | 1.78 mm | 1.79 m/s, 9° | 0 W/m² | - |
| 1777971266 | 4.44° C | 93% | 1022.4 hPa | 1.78 mm | 1.79 m/s, 329° | 0 W/m² | - |
| 1777970964 | 5° C | 93% | 1022.1 hPa | 1.27 mm | 1.34 m/s, 308° | 0 W/m² | - |
| 1777970662 | 5° C | 93% | 1022 hPa | 1.27 mm | 2.68 m/s, 310° | 0 W/m² | - |
| 1777970359 | 5° C | 93% | 1021.9 hPa | 3.05 mm | 0.45 m/s, 342° | 0 W/m² | - |
| 1777970057 | 5° C | 93% | 1022 hPa | 4.83 mm | 1.34 m/s, 318° | 0 W/m² | - |
| 1777969753 | 5.56° C | 93% | 1021.9 hPa | 4.83 mm | 0.45 m/s, 323° | 0 W/m² | - |
| 1777969449 | 5.56° C | 93% | 1021.9 hPa | 4.32 mm | 0.89 m/s, 323° | 0 W/m² | - |
| 1777969146 | 5.56° C | 93% | 1021.9 hPa | 1.27 mm | 1.79 m/s, 314° | 0 W/m² | - |
| 1777968842 | 5.56° C | 93% | 1021.8 hPa | 1.78 mm | 1.34 m/s, 332° | 0 W/m² | - |
| 1777968539 | 5.56° C | 93% | 1021.8 hPa | 1.78 mm | 0.89 m/s, 328° | 0 W/m² | - |
| 1777968235 | 5.56° C | 93% | 1021.8 hPa | 0 mm | 0.89 m/s, 310° | 0 W/m² | - |
| 1777967931 | 5.56° C | 92% | 1021.8 hPa | 0 mm | 0.45 m/s, 326° | 0 W/m² | - |
| 1777967628 | 5.56° C | 92% | 1021.9 hPa | 0 mm | 0.45 m/s, 291° | 0 W/m² | - |
| 1777967325 | 5.56° C | 92% | 1021.8 hPa | 1.27 mm | 0.45 m/s, 329° | 0 W/m² | - |
| 1777967022 | 5.56° C | 92% | 1021.8 hPa | 1.27 mm | 1.79 m/s, 303° | 0 W/m² | - |
| 1777966719 | 5.56° C | 92% | 1021.6 hPa | 0 mm | 1.34 m/s, 349° | 0 W/m² | - |
| 1777966417 | 6.11° C | 92% | 1021.7 hPa | 0 mm | 2.24 m/s, 345° | 0 W/m² | - |
| 1777966114 | 5.56° C | 91% | 1021.6 hPa | 0 mm | 1.34 m/s, 5° | 0 W/m² | - |
| 1777965810 | 6.11° C | 91% | 1021.7 hPa | 1.78 mm | 1.34 m/s, 300° | 0 W/m² | - |
| 1777965506 | 6.11° C | 91% | 1021.4 hPa | 3.56 mm | 2.24 m/s, 322° | 0 W/m² | - |
| 1777965203 | 6.11° C | 91% | 1021.8 hPa | 3.05 mm | 1.34 m/s, 358° | 0 W/m² | - |
* Rain latest hour (hover to see other rain measurements)
** Current wind speed in m/s (hover to see current wind gust speed)